Dewpoint
-1 -1 -2 -5 -3 -3 -3 -3 -4 -3 -1 -1 -2 -2 -3 6 8 7 8 9 10 10 10 9 9 8 8 8 8 8 8 8 9 9 8 6 3 6 4 6 8 7 7 6
1 -1 -2 -2 -1 0 -1 -2 -3 -3 -2 -1 -3 -3 -2 3 7 7 7 8 8 9 10 9 9 8 8 8 9 8 8 9 10 9 8 7 6 7 5 6 6 7 7 7
-2 -2 -1 -1 -0 1 -0 -1 -3 -3 -3 -3 -2 -3 -2 0 5 6 7 7 6 7 9 9 8 8 9 8 9 9 10 10 11 10 9 8 8 8 4 2 3 7 7 7
-2 -3 -1 -0 -0 -1 -1 -2 -2 -2 -1 -1 -3 -0 -4 -2 1 4 6 7 7 6 7 9 10 9 8 8 8 8 8 9 11 10 9 8 6 7 7 4 7 7 7 8
-1 -0 0 1 -1 -1 -1 -1 -1 -1 -1 -0 -1 -1 -4 -3 -3 -2 1 5 7 7 6 8 9 10 10 9 9 9 9 9 10 10 10 10 8 7 8 9 7 7 8 8
-4 -1 -1 -2 -1 -1 -1 -0 -0 0 -0 2 -1 -1 -3 -4 -4 -4 -4 -1 4 6 7 6 8 10 10 11 11 11 10 9 10 10 8 10 10 9 10 7 7 8 8 9
-2 -2 -2 -1 -1 -0 -1 0 3 4 3 3 -0 -0 -3 -5 -4 -3 -2 -1 -1 3 6 7 7 8 10 10 11 11 10 10 10 10 9 9 9 9 9 9 6 8 9 9
-0 -0 -2 -2 -2 -1 -0 -0 3 4 4 2 0 1 -3 -3 -3 -3 0 0 -0 -0 3 6 7 8 9 10 11 9 8 10 10 9 7 8 8 8 8 8 8 9 8 9
-1 -3 -3 -1 -1 -2 1 1 -1 3 5 5 -1 -3 -5 -4 -3 -2 -1 1 -1 -0 2 4 5 7 8 10 11 10 11 11 11 9 9 8 7 8 8 8 7 8 9 9
-2 -2 -1 0 -0 -0 -0 -1 2 2 5 4 -0 -2 -5 -4 -6 -4 -4 -3 1 2 2 3 4 6 8 9 10 11 11 11 11 11 9 8 8 9 10 8 7 7 8 9
-4 -3 2 1 2 -0 1 1 1 0 1 3 2 -1 -4 -5 -5 -4 -2 -1 1 3 3 4 4 5 7 8 9 10 10 10 11 11 10 10 10 9 9 9 9 8 8 9
-3 -2 0 -1 -1 -1 -1 -0 0 3 3 3 4 1 -6 -5 -4 -3 -2 -1 1 4 5 6 6 7 7 8 8 9 9 10 10 11 11 10 9 8 9 9 8 8 8 8
-2 -1 1 -0 -0 -0 -1 -1 -1 -0 1 1 6 1 -4 -4 -3 -4 -4 -2 1 4 5 5 6 7 8 9 9 9 9 9 10 10 9 8 8 9 8 8 9 9 8 8
-2 -3 -1 0 -3 -4 0 -1 -2 0 3 0 1 -2 -4 -3 -3 -4 -3 -4 -3 2 5 6 7 8 8 9 9 10 9 6 7 8 8 9 10 9 9 8 8 8 7 7
-1 -1 -2 -4 -6 -6 -5 -5 -3 -1 -1 -0 -1 -2 -3 -4 -4 -4 -3 -2 -1 -0 4 7 7 9 9 10 9 9 8 9 9 10 10 10 9 8 8 7 7 6 6 5
-1 -1 0 -0 -3 -3 -4 -4 -4 -3 -4 -1 -1 -1 -3 -3 -3 -3 -2 0 2 4 5 6 7 8 9 9 8 9 9 9 9 9 8 8 7 7 6 5 4 3 2 2
2 0 1 1 -0 -1 4 1 -2 -2 -1 -1 -1 -2 -4 -2 -2 -2 -0 2 3 4 5 5 6 7 6 6 6 6 6 7 7 7 7 6 5 4 3 2 1 1 -0 -0
3 3 3 3 4 9 -2 -2 -3 -2 -2 -2 -2 -3 -4 -4 -2 -0 1 3 3 3 4 4 4 4 4 4 4 5 5 6 5 5 5 4 2 2 1 0 0 -0 -0 0
3 3 5 9 4 -0 -1 -2 -1 0 -1 -3 -3 -4 -4 -1 -0 0 1 2 2 2 2 2 3 2 3 3 4 4 4 4 4 3 2 1 1 0 -0 -1 -1 -1 -0 -1
2 3 6 4 5 9 -1 -3 -3 -3 1 -4 -5 -4 -3 -1 2 -2 0 1 1 1 1 2 2 2 2 2 2 2 2 1 1 1 0 0 -0 -1 -1 -0 -1 -4 -6 -8
5 5 7 6 7 3 -1 -3 -3 2 2 -3 -4 -3 -1 0 -1 1 0 0 0 1 1 1 1 1 1 1 1 1 1 1 0 -0 -1 -1 -1 -1 -2 -6 -10 -12 -10 -14
5 6 8 6 10 8 -2 -3 -1 -1 -0 -2 -1 -1 -0 0 1 0 0 -0 -0 -0 0 1 1 1 1 1 1 0 -0 -1 -2 -1 -1 -2 -7 -11 -13 -14 -15 -15 -16 -19
6 4 5 3 3 1 -1 -3 -3 -0 -2 -1 -1 -0 1 1 0 -0 -0 -1 -1 -1 -0 -0 0 -0 -1 -1 -2 -2 -3 -2 -3 -6 -10 -13 -14 -15 -17 -18 -22 -21 -21 -21
2 2 5 4 -0 1 0 -2 -0 -1 -1 -1 -1 0 2 0 -0 -0 -1 -1 -1 -1 -1 -2 -2 -2 -3 -3 -3 -3 -4 -7 -10 -12 -14 -16 -17 -20 -28 -29 -30 -19 -26 -27
0 2 3 3 2 1 2 1 -0 1 -1 -2 -0 1 1 0 -0 -1 -1 -2 -2 -2 -2 -2 -3 -3 -3 -3 -5 -7 -10 -11 -13 -16 -18 -22 -28 -32 -27 -25 -33 -33 -30 -34
1 2 5 5 0 2 -0 1 2 1 1 -1 -0 1 1 -0 -1 -1 -2 -2 -3 -3 -3 -3 -3 -4 -5 -7 -9 -11 -13 -15 -18 -21 -27 -30 -33 -34 -29 -20 -15 -25 -32 -32
Wind_Speed
10 8 10 5 3 9 5 8 8 5 3 5 5 9 5 15 16 15 14 17 18 19 19 19 24 27 28 29 30 27 25 23 20 19 19 20 21 21 24 27 25 22 23 23
7 11 4 3 4 5 6 8 8 3 7 5 6 10 2 13 17 16 16 18 19 19 21 22 24 29 31 31 30 27 26 23 22 19 19 19 19 21 25 29 27 27 27 24
12 3 3 7 8 9 9 10 4 6 6 6 10 13 5 8 13 14 16 16 18 22 24 26 27 29 31 33 32 29 26 24 23 21 19 19 17 19 27 30 30 31 27 25
11 7 8 9 11 10 11 5 7 7 7 8 2 5 3 6 10 15 18 20 21 23 24 25 28 30 32 33 31 30 28 26 24 24 22 22 21 21 24 30 31 27 25 23
9 9 10 10 10 7 4 2 3 6 9 6 7 7 4 3 8 13 19 23 24 24 27 29 31 32 31 30 30 29 28 27 26 25 25 23 23 21 20 26 26 25 24 25
8 3 5 4 4 8 6 5 4 5 6 9 10 8 4 5 4 2 5 19 24 26 28 29 29 27 28 28 29 29 29 29 28 28 29 29 27 26 23 26 26 26 25 25
14 13 6 6 7 7 10 7 6 6 6 7 3 6 9 6 3 6 8 9 13 26 28 28 28 29 29 30 30 30 31 30 29 29 29 29 30 30 29 25 27 28 29 28
14 13 15 11 13 9 14 12 6 5 4 2 4 6 3 3 4 9 9 10 12 17 26 31 29 30 28 29 29 31 31 30 29 29 29 29 27 28 29 29 27 30 31 29
15 13 5 7 5 10 7 9 4 2 1 4 5 6 8 1 1 2 4 4 4 9 16 23 29 27 25 25 26 27 26 25 25 29 27 27 26 27 28 27 26 25 26 29
7 9 5 7 6 4 7 10 6 5 5 6 3 5 1 4 2 2 4 4 3 2 6 11 17 23 23 22 20 21 22 22 21 22 23 23 22 21 23 24 24 22 23 24
10 9 6 7 11 11 6 7 4 3 3 4 4 4 1 3 1 2 2 3 4 2 1 4 8 11 14 15 16 16 16 16 16 16 16 17 16 15 18 21 21 18 20 20
16 9 9 13 3 5 9 11 11 7 6 3 4 8 4 7 4 4 6 5 3 1 4 5 7 9 10 11 11 12 11 12 12 12 12 13 16 16 17 16 18 18 17 18
13 9 10 9 6 4 9 11 12 7 3 11 7 5 5 4 6 8 7 7 5 3 4 7 8 8 10 10 10 10 9 9 8 9 11 14 15 17 17 16 14 13 14 15
21 14 16 13 13 11 11 13 15 14 8 11 11 12 9 12 10 10 7 6 7 6 7 7 7 7 7 8 7 7 10 11 11 12 13 13 14 13 10 9 9 10 11 13
11 16 17 17 16 15 16 14 15 16 16 13 13 15 13 12 10 4 5 4 6 8 8 9 10 10 9 8 9 10 9 9 10 10 10 7 5 4 5 6 8 10 11 11
6 10 10 12 13 13 16 17 18 18 17 12 16 17 13 13 7 6 5 6 7 8 8 8 11 11 11 10 9 8 7 6 6 5 6 5 5 5 6 8 7 9 10 12
4 9 8 13 8 8 6 15 16 16 14 14 14 14 12 11 12 10 7 9 11 11 12 12 13 13 14 13 12 11 10 9 8 7 9 8 8 8 9 8 8 8 7 8
5 9 5 5 4 7 10 3 17 18 15 14 15 13 13 12 4 8 6 11 14 14 15 14 15 16 16 15 14 14 13 12 11 12 11 11 11 11 9 7 6 4 5 7
14 7 4 4 9 10 3 5 8 13 15 16 18 18 12 7 10 6 9 13 15 15 15 15 16 17 17 16 16 15 17 16 15 16 14 13 10 7 4 1 2 6 6 3
7 8 7 3 7 8 9 12 14 4 14 11 13 13 10 15 8 7 18 17 18 17 17 17 17 18 18 18 18 19 19 18 17 15 14 11 9 5 2 3 2 2 2 5
5 4 11 11 7 6 4 10 14 10 15 5 10 10 17 13 6 20 24 19 17 18 19 19 18 18 18 19 19 20 19 17 15 13 9 7 4 3 1 1 1 4 6 9
8 8 5 7 6 11 13 11 12 14 6 9 12 14 20 14 14 23 24 22 21 20 20 18 19 19 18 18 17 18 17 15 12 8 6 5 5 3 1 2 5 8 11 13
6 6 4 7 6 4 27 19 24 10 11 10 13 15 20 20 21 24 24 23 21 21 21 20 21 21 18 17 16 17 15 13 10 8 7 6 3 1 3 6 8 8 9 10
6 5 4 5 10 13 17 23 10 12 12 9 11 17 24 27 27 26 24 23 22 22 22 22 22 21 20 17 16 14 13 11 10 9 6 4 2 3 5 6 7 7 9 11
10 10 13 14 14 15 17 19 20 15 15 14 12 19 25 28 28 28 26 25 24 23 22 21 21 20 20 19 17 15 13 11 9 7 4 2 3 3 4 6 6 7 10 13
10 8 8 10 16 12 20 8 17 21 22 17 18 21 24 28 31 29 27 26 25 25 24 22 21 22 21 20 17 15 13 10 7 4 3 2 4 5 4 4 4 12 11 13
Wind_Direction
203 230 229 265 292 304 256 257 263 117 156 271 258 278 227 193 196 202 194 191 196 195 189 186 183 183 183 183 187 195 200 203 206 210 212 216 220 217 221 220 224 229 230 228
203 226 243 193 215 245 247 235 233 216 161 263 297 291 247 194 207 206 203 196 197 189 188 189 188 191 193 193 197 201 206 210 214 217 217 217 220 221 225 227 230 234 231 229
232 112 116 204 213 229 233 250 228 283 186 237 276 264 170 201 214 210 214 211 200 195 194 197 195 198 201 205 206 206 210 213 216 214 219 216 219 222 227 233 234 239 246 235
235 225 229 235 241 229 237 233 258 251 244 248 249 272 235 199 217 218 216 213 207 201 201 202 204 206 208 210 212 216 218 219 218 216 218 217 220 227 235 238 242 246 251 234
201 194 202 220 232 207 251 158 265 258 248 269 200 256 148 195 234 228 222 218 213 207 204 205 207 210 211 213 215 218 220 221 220 219 218 223 225 230 232 242 250 256 257 237
216 161 218 239 200 213 138 185 209 245 253 244 248 248 210 206 247 233 222 221 220 213 210 212 213 210 212 213 215 217 217 219 219 221 229 229 232 229 226 244 251 256 251 242
203 215 210 213 211 185 215 220 227 213 215 245 148 234 262 295 246 296 289 269 230 219 215 214 209 210 210 212 214 218 220 218 222 225 232 237 240 240 239 243 252 254 254 256
207 205 212 196 228 229 207 212 234 231 206 186 168 235 180 49 260 290 285 285 255 221 215 215 213 213 214 212 213 220 222 221 222 228 237 241 247 245 244 251 256 255 263 278
206 222 149 202 197 214 172 211 251 241 58 260 243 235 249 60 127 274 307 300 222 205 209 213 218 218 217 217 218 221 220 221 221 235 236 244 250 246 244 252 260 266 265 269
198 200 209 147 176 177 257 149 186 213 227 230 184 258 224 121 113 35 29 39 69 136 197 210 212 217 220 220 221 221 225 225 221 231 239 241 251 259 254 255 262 267 272 275
198 235 151 180 207 191 172 193 228 271 264 256 243 245 145 202 204 193 304 330 358 30 141 181 190 201 208 210 214 222 223 219 219 224 228 235 234 243 258 262 267 280 272 263
204 223 214 208 109 288 236 203 208 240 205 233 293 269 233 275 266 243 235 255 273 87 116 144 155 160 167 178 190 197 200 202 208 212 218 224 244 260 266 266 265 263 255 249
176 214 218 209 195 192 215 214 224 238 262 241 241 263 179 180 234 238 232 231 242 207 151 138 139 145 151 161 169 175 182 189 194 210 222 242 256 264 267 265 265 256 243 238
182 211 220 228 226 208 205 218 214 217 234 253 234 265 252 254 242 245 210 199 222 221 204 178 164 159 155 158 159 160 187 203 219 228 239 248 254 264 263 258 240 230 229 237
197 222 225 241 250 241 240 239 218 222 231 251 263 254 252 264 250 249 197 202 189 190 191 193 177 163 153 151 170 180 203 214 224 234 239 227 231 233 215 218 207 208 213 213
202 226 210 229 233 232 241 245 251 233 248 255 261 267 266 261 232 231 215 184 175 159 158 156 155 148 143 144 156 160 162 168 191 189 167 157 154 159 169 184 188 194 206 201
210 221 208 236 222 233 254 236 231 228 223 230 260 264 261 238 229 223 194 166 156 142 132 130 128 127 132 138 141 140 141 141 137 135 132 141 145 154 159 166 176 190 204 213
218 216 205 223 172 227 243 213 227 233 238 238 256 256 261 268 191 180 177 164 147 140 130 125 125 125 127 129 129 127 124 124 125 123 133 135 139 141 146 173 199 242 275 279
220 200 189 177 213 255 191 194 188 204 243 240 250 262 244 189 158 177 165 156 149 143 134 131 132 131 128 127 126 125 120 119 120 122 127 134 142 147 149 191 275 285 285 255
186 234 226 168 224 226 239 206 199 228 262 253 251 262 206 178 215 199 169 157 148 142 139 136 133 130 129 127 127 125 121 120 120 125 124 127 141 166 220 264 225 245 272 285
163 181 208 216 242 248 208 161 158 206 260 176 217 225 193 202 246 155 158 153 150 147 143 139 134 132 131 129 129 124 124 122 125 128 144 162 178 203 184 136 293 303 306 305
187 182 181 206 227 239 152 143 208 231 234 208 204 200 197 187 145 152 155 154 152 147 144 140 134 130 128 129 129 124 123 130 139 149 153 156 153 149 150 303 306 309 305 303
206 214 246 223 231 202 185 212 221 229 233 198 196 190 180 166 161 161 158 155 152 149 146 143 139 134 130 131 134 133 137 141 146 148 149 153 165 243 299 305 306 308 313 317
228 163 197 297 260 240 216 222 225 222 217 203 198 186 177 168 164 162 160 158 155 154 152 149 144 138 135 138 144 149 149 152 157 158 161 168 228 298 307 314 318 325 322 328
221 163 205 237 257 273 265 237 226 220 218 218 193 188 179 169 165 165 163 161 160 157 154 151 149 149 150 156 157 157 156 155 159 166 178 218 282 309 325 321 320 328 326 333
200 203 205 236 244 226 262 240 225 220 219 211 187 175 178 175 167 165 164 164 163 159 157 154 155 158 159 162 162 162 162 162 169 184 226 284 308 315 325 330 339 325 336 339
Height
1501 1499 1495 1489 1493 1493 1490 1490 1487 1485 1489 1490 1487 1483 1479 1489 1495 1496 1500 1505 1509 1511 1515 1519 1522 1524 1527 1531 1534 1537 1540 1543 1547 1550 1552 1553 1555 1558 1560 1562 1565 1566 1567 1569
1499 1495 1489 1494 1496 1497 1492 1490 1487 1487 1490 1492 1482 1478 1479 1483 1488 1493 1495 1499 1504 1509 1513 1516 1519 1523 1525 1527 1529 1533 1537 1541 1544 1546 1548 1551 1554 1555 1557 1558 1560 1561 1562 1564
1489 1487 1492 1494 1493 1496 1492 1489 1487 1486 1485 1485 1484 1476 1477 1481 1484 1488 1491 1494 1498 1502 1506 1511 1514 1517 1521 1523 1525 1529 1533 1537 1540 1543 1546 1547 1549 1550 1552 1553 1555 1556 1557 1559
1488 1485 1491 1491 1491 1489 1490 1486 1489 1488 1488 1488 1481 1490 1474 1474 1479 1482 1485 1488 1491 1495 1501 1505 1509 1512 1514 1517 1522 1526 1530 1533 1536 1539 1542 1543 1545 1546 1547 1548 1550 1551 1552 1554
1486 1486 1489 1489 1486 1487 1486 1489 1489 1486 1485 1486 1482 1487 1466 1475 1473 1473 1477 1481 1485 1489 1493 1496 1500 1504 1509 1514 1516 1520 1525 1528 1531 1533 1536 1538 1540 1544 1547 1544 1545 1547 1547 1549
1477 1485 1485 1481 1484 1486 1487 1488 1489 1488 1484 1494 1479 1483 1468 1465 1466 1467 1469 1474 1478 1483 1487 1490 1495 1501 1504 1508 1511 1514 1517 1521 1524 1526 1529 1532 1534 1537 1539 1538 1539 1541 1542 1543
1478 1479 1480 1484 1483 1485 1485 1486 1494 1499 1496 1495 1483 1485 1468 1461 1464 1466 1467 1468 1471 1476 1480 1484 1490 1493 1497 1500 1504 1507 1511 1514 1517 1521 1523 1526 1528 1530 1531 1533 1533 1535 1535 1535
1477 1483 1477 1476 1477 1476 1479 1480 1489 1503 1497 1486 1487 1484 1463 1463 1465 1466 1467 1467 1467 1468 1471 1476 1481 1486 1491 1495 1498 1500 1504 1508 1512 1514 1517 1520 1523 1525 1527 1528 1528 1529 1530 1529
1470 1471 1470 1472 1474 1475 1479 1483 1476 1489 1499 1494 1476 1469 1460 1462 1463 1464 1464 1464 1464 1465 1467 1469 1475 1481 1486 1490 1492 1495 1500 1504 1508 1509 1512 1515 1517 1518 1520 1522 1523 1524 1526 1526
1463 1472 1469 1473 1474 1476 1474 1472 1486 1482 1498 1496 1475 1475 1463 1463 1463 1463 1461 1461 1463 1463 1464 1466 1470 1475 1480 1485 1489 1491 1494 1499 1503 1504 1506 1509 1511 1512 1514 1515 1516 1519 1520 1521
1457 1461 1474 1472 1470 1464 1476 1476 1477 1471 1478 1485 1487 1473 1457 1459 1460 1462 1463 1463 1463 1463 1464 1466 1467 1471 1475 1479 1483 1486 1489 1494 1498 1501 1502 1504 1507 1508 1509 1509 1510 1511 1514 1517
1455 1458 1466 1465 1464 1463 1458 1463 1467 1478 1484 1480 1483 1476 1455 1457 1461 1462 1463 1463 1464 1464 1465 1466 1467 1469 1471 1475 1479 1482 1485 1489 1493 1496 1499 1501 1501 1503 1503 1504 1505 1507 1509 1512
1452 1458 1466 1467 1468 1465 1463 1461 1462 1465 1472 1473 1482 1472 1456 1459 1460 1460 1461 1462 1464 1465 1466 1466 1467 1469 1471 1474 1476 1480 1483 1486 1488 1491 1492 1493 1495 1497 1498 1500 1502 1504 1506 1508
1445 1445 1452 1459 1452 1449 1462 1459 1459 1463 1470 1467 1465 1459 1452 1452 1453 1453 1458 1460 1462 1464 1464 1465 1466 1469 1471 1473 1476 1479 1479 1482 1484 1486 1488 1489 1491 1493 1495 1497 1498 1501 1503 1505
1443 1445 1445 1443 1443 1443 1447 1448 1452 1457 1456 1458 1455 1451 1449 1446 1447 1450 1454 1457 1459 1460 1462 1464 1466 1467 1470 1472 1473 1475 1477 1479 1481 1483 1485 1486 1489 1491 1493 1495 1497 1498 1501 1503
1441 1441 1442 1446 1442 1446 1447 1443 1443 1446 1445 1447 1448 1447 1445 1445 1449 1451 1452 1453 1456 1458 1459 1462 1464 1465 1467 1469 1470 1473 1475 1477 1479 1480 1483 1485 1488 1490 1492 1494 1496 1498 1500 1502
1442 1440 1444 1447 1445 1447 1461 1446 1441 1441 1442 1443 1445 1440 1440 1443 1445 1447 1450 1451 1455 1457 1458 1460 1462 1463 1465 1466 1469 1471 1474 1477 1478 1480 1483 1486 1488 1490 1492 1494 1496 1498 1500 1503
1439 1440 1440 1446 1463 1465 1430 1430 1431 1433 1433 1434 1435 1435 1436 1438 1441 1447 1450 1451 1454 1456 1457 1460 1461 1462 1464 1466 1469 1471 1474 1476 1479 1481 1484 1487 1489 1491 1493 1494 1496 1499 1501 1502
1435 1436 1442 1449 1444 1430 1434 1434 1433 1434 1431 1427 1429 1429 1431 1442 1444 1447 1448 1450 1453 1455 1457 1459 1461 1463 1465 1467 1469 1472 1474 1477 1479 1482 1485 1488 1490 1492 1494 1495 1496 1497 1498 1500
1436 1437 1434 1449 1439 1443 1420 1418 1424 1427 1426 1421 1424 1426 1431 1440 1438 1431 1445 1447 1450 1453 1455 1458 1461 1463 1465 1468 1470 1473 1475 1478 1481 1484 1487 1489 1491 1492 1493 1494 1495 1495 1496 1496
1436 1438 1437 1434 1435 1418 1412 1416 1423 1433 1419 1417 1420 1422 1429 1432 1429 1432 1440 1446 1450 1452 1454 1457 1461 1463 1466 1469 1472 1474 1476 1479 1483 1485 1487 1489 1490 1491 1492 1492 1493 1493 1494 1493
1422 1426 1434 1430 1437 1430 1413 1420 1417 1407 1410 1413 1415 1418 1422 1429 1431 1435 1439 1444 1448 1451 1454 1458 1461 1464 1468 1470 1473 1475 1478 1480 1482 1484 1486 1487 1488 1489 1490 1490 1490 1490 1489 1488
1416 1412 1412 1415 1404 1400 1403 1400 1403 1404 1406 1408 1411 1414 1418 1423 1429 1435 1439 1444 1448 1451 1455 1458 1461 1464 1467 1471 1473 1475 1477 1479 1481 1482 1484 1485 1487 1487 1487 1488 1487 1487 1485 1483
1407 1410 1410 1414 1398 1400 1399 1398 1399 1401 1404 1405 1407 1410 1413 1417 1424 1433 1439 1443 1447 1451 1454 1457 1459 1462 1465 1469 1472 1474 1475 1477 1479 1481 1482 1483 1484 1484 1484 1483 1483 1482 1480 1478
1396 1402 1401 1400 1397 1400 1397 1394 1395 1397 1399 1401 1404 1407 1409 1414 1421 1427 1435 1441 1445 1450 1453 1456 1458 1460 1463 1466 1469 1472 1474 1477 1479 1480 1480 1480 1481 1480 1480 1479 1479 1477 1475 1473
1392 1390 1395 1387 1382 1390 1388 1388 1391 1394 1394 1397 1399 1403 1409 1412 1415 1423 1431 1438 1443 1446 1449 1453 1456 1458 1461 1464 1467 1469 1472 1474 1476 1478 1479 1479 1478 1477 1477 1476 1475 1472 1471 1469